TimeEST,TemperatureF,Dew PointF,Humidity,Sea Level PressureIn,VisibilityMPH,Wind Direction,Wind SpeedMPH,Gust SpeedMPH,PrecipitationIn,Events,Conditions,WindDirDegrees,DateUTC
12:53 AM,36.0,33.1,89,29.86,10.0,NNE,10.4,-,N/A,,Clear,20,2014-03-08 05:53:00
1:44 AM,36.0,33.1,89,29.83,10.0,NNE,11.5,-,N/A,,Scattered Clouds,20,2014-03-08 06:44:00
1:53 AM,36.0,33.1,89,29.83,10.0,North,11.5,-,N/A,,Mostly Cloudy,10,2014-03-08 06:53:00
2:32 AM,36.0,33.1,89,29.80,10.0,NNE,11.5,-,N/A,,Overcast,20,2014-03-08 07:32:00
2:53 AM,36.0,33.1,89,29.80,10.0,NNE,10.4,-,N/A,,Overcast,20,2014-03-08 07:53:00
3:53 AM,37.0,34.0,89,29.79,10.0,North,13.8,-,N/A,,Overcast,10,2014-03-08 08:53:00
4:53 AM,36.0,33.1,89,29.78,10.0,North,12.7,-,N/A,,Overcast,10,2014-03-08 09:53:00
5:53 AM,35.1,32.0,89,29.79,10.0,North,10.4,-,N/A,,Overcast,10,2014-03-08 10:53:00
6:03 AM,35.1,32.0,89,29.78,10.0,NNE,11.5,-,N/A,,Overcast,20,2014-03-08 11:03:00
6:36 AM,34.0,30.9,89,29.78,10.0,NNE,8.1,-,N/A,,Partly Cloudy,20,2014-03-08 11:36:00
6:53 AM,36.0,32.0,86,29.79,10.0,North,10.4,-,N/A,,Clear,10,2014-03-08 11:53:00
7:25 AM,37.0,33.1,86,29.79,10.0,North,12.7,-,N/A,,Scattered Clouds,360,2014-03-08 12:25:00
7:53 AM,37.9,33.1,83,29.79,10.0,North,9.2,-,N/A,,Partly Cloudy,350,2014-03-08 12:53:00
8:53 AM,41.0,32.0,70,29.78,10.0,NNW,11.5,-,N/A,,Clear,340,2014-03-08 13:53:00
9:53 AM,43.0,32.0,65,29.78,10.0,NW,11.5,-,N/A,,Clear,320,2014-03-08 14:53:00
10:53 AM,48.0,30.9,52,29.76,10.0,NNW,13.8,-,N/A,,Clear,330,2014-03-08 15:53:00
11:53 AM,51.1,28.9,43,29.75,10.0,NW,12.7,-,N/A,,Clear,320,2014-03-08 16:53:00
12:53 PM,53.1,26.1,35,29.70,10.0,NW,11.5,-,N/A,,Clear,310,2014-03-08 17:53:00
1:53 PM,54.0,26.1,34,29.70,10.0,NW,8.1,-,N/A,,Clear,310,2014-03-08 18:53:00
2:53 PM,52.0,26.1,37,29.70,10.0,WNW,8.1,-,N/A,,Clear,290,2014-03-08 19:53:00
3:53 PM,52.0,27.0,38,29.69,10.0,SW,6.9,-,N/A,,Partly Cloudy,220,2014-03-08 20:53:00
4:53 PM,46.9,28.0,48,29.71,10.0,North,3.5,-,N/A,,Scattered Clouds,360,2014-03-08 21:53:00
5:53 PM,42.1,27.0,55,29.74,10.0,NNW,3.5,-,N/A,,Clear,330,2014-03-08 22:53:00
6:53 PM,32.0,23.0,69,29.76,10.0,Calm,Calm,-,N/A,,Clear,0,2014-03-08 23:53:00
7:53 PM,30.0,21.9,72,29.78,10.0,Calm,Calm,-,N/A,,Clear,0,2014-03-09 00:53:00
8:53 PM,28.0,21.9,78,29.80,10.0,Calm,Calm,-,N/A,,Clear,0,2014-03-09 01:53:00
9:53 PM,30.9,25.0,79,29.82,10.0,North,9.2,-,N/A,,Clear,350,2014-03-09 02:53:00
10:53 PM,35.1,27.0,72,29.83,10.0,North,5.8,-,N/A,,Clear,360,2014-03-09 03:53:00
11:53 PM,37.0,27.0,67,29.83,10.0,NE,8.1,-,N/A,,Mostly Cloudy,40,2014-03-09 04:53:00